Nashua, NH

3:03 PM EDT on May 29, 2017 (GMT -0400)
Boire

Weather History for KASH - December, 2012

Change the Weather History Date:

Saturday, December 1, 2012

  Actual Average Record
Temperature  
Mean Temperature 26 °F -  
Max Temperature 28 °F 42 °F 68 °F (2001)
Min Temperature 24 °F 23 °F 5 °F (1967)
Degree Days  
Heating Degree Days 39    
Moisture  
Dew Point 21 °F    
Average Humidity 82    
Maximum Humidity 100    
Minimum Humidity 36    
Precipitation  
Precipitation 0.00 in - - ()
Sea Level Pressure  
Sea Level Pressure 30.59 in    
Wind  
Wind Speed 2 mph (North)    
Max Wind Speed 6 mph    
Max Gust Speed -    
Visibility 6 miles    
Events Rain , Snow    
Averages and records for this station are not official NWS values.
T = Trace of Precipitation, MM = Missing Value Source: NWS Daily Summary

Daily Weather History Graph

Daily Weather History Graph

Search for Another Location

Airport or City:

Trip Planner

Search our weather history database for the weather conditions in past years. The results will help you decide how hot, cold, wet, or windy it might be!

Date:

Astronomy

Dec. 01, 2012 Rise Set
Actual Time 6:57 AM EST 4:13 PM EST
Civil Twilight 6:25 AM EST 4:44 PM EST
Nautical Twilight 5:50 AM EST 5:19 PM EST
Astronomical Twilight 5:16 AM EST 5:53 PM EST
Moon 7:01 PM EST (12/1) 9:07 AM EST (12/1)
Length of Visible Light 10h 18m
Length of Day
9h 15m
Waning Gibbous, 92% of the Moon is Illuminated
Dec 1
Waning Gibbous
Dec 6
Last Quarter
Dec 13
New
Dec 20
First Quarter
Dec 28
Full

Hourly Weather History & Observations

Time (EST) Temp. Windchill Dew Point Humidity Pressure Visibility Wind Dir Wind Speed Gust Speed Precip Events Conditions
12:51 AM 28.0 °F - 4.1 °F 36% 30.60 in 10.0 mi Calm Calm - N/A   Overcast
1:51 AM 27.1 °F 23.2 °F 4.1 °F 37% 30.61 in 10.0 mi North 3.5 mph - N/A   Partly Cloudy
2:51 AM 27.1 °F 21.8 °F 11.1 °F 51% 30.60 in 10.0 mi North 4.6 mph - N/A   Partly Cloudy
3:51 AM 25.2 °F - 13.1 °F 60% 30.59 in 10.0 mi Calm Calm - N/A   Mostly Cloudy
4:51 AM 25.2 °F 18.3 °F 13.1 °F 60% 30.60 in 10.0 mi North 5.8 mph - N/A   Mostly Cloudy
5:51 AM 25.2 °F 18.3 °F 14.0 °F 63% 30.62 in 10.0 mi North 5.8 mph - N/A   Overcast
6:51 AM 25.2 °F 18.3 °F 17.1 °F 71% 30.64 in 10.0 mi North 5.8 mph - 0.00 in   Overcast
7:51 AM 25.2 °F 20.9 °F 18.1 °F 75% 30.65 in 9.0 mi North 3.5 mph - 0.00 in   Overcast
8:51 AM 25.2 °F 19.5 °F 20.1 °F 81% 30.66 in 3.0 mi North 4.6 mph - 0.00 in Snow Light Snow
9:51 AM 25.2 °F 19.5 °F 21.0 °F 84% 30.66 in 2.0 mi Variable 4.6 mph - 0.00 in Snow Light Snow
9:53 AM 24.8 °F 20.5 °F 21.2 °F 86% 30.64 in 1.8 mi NE 3.5 mph - 0.00 in Snow Light Snow
9:58 AM 24.8 °F 19.1 °F 21.2 °F 86% 30.64 in 2.0 mi North 4.6 mph - 0.00 in Snow Light Snow
10:51 AM 26.1 °F 21.9 °F 22.1 °F 85% 30.64 in 1.8 mi North 3.5 mph - 0.00 in Snow Light Snow
11:51 AM 26.1 °F - 22.1 °F 85% 30.61 in 3.0 mi Calm Calm - 0.00 in Snow Light Snow
12:37 PM 26.6 °F - 21.2 °F 80% 30.59 in 6.0 mi Calm Calm - 0.00 in   Overcast
12:51 PM 27.1 °F - 23.0 °F 84% 30.61 in 3.0 mi Calm Calm - 0.00 in   Overcast
1:51 PM 27.1 °F - 23.0 °F 84% 30.60 in 3.0 mi Calm Calm - 0.00 in Snow Light Snow
2:51 PM 27.1 °F 21.8 °F 24.1 °F 88% 30.60 in 8.0 mi North 4.6 mph - 0.00 in Snow Light Snow
3:51 PM 27.1 °F - 24.1 °F 88% 30.61 in 3.0 mi Calm Calm - 0.00 in Snow Light Snow
4:51 PM 28.0 °F - 24.1 °F 85% 30.61 in 4.0 mi Calm Calm - 0.00 in Snow Light Snow
5:51 PM 27.1 °F - 25.2 °F 92% 30.61 in 4.0 mi Calm Calm - 0.00 in Snow Light Snow
5:58 PM 26.6 °F - 24.8 °F 93% 30.58 in 4.0 mi Calm Calm - 0.00 in Snow Light Snow
6:09 PM 26.6 °F - 24.8 °F 93% 30.58 in 4.0 mi Calm Calm - 0.00 in   Scattered Clouds
6:16 PM 26.6 °F - 24.8 °F 93% 30.58 in 4.0 mi Calm Calm - 0.00 in   Overcast
6:51 PM 28.0 °F - 25.2 °F 89% 30.60 in 9.0 mi Calm Calm - 0.00 in   Overcast
7:51 PM 27.1 °F - 25.2 °F 92% 30.58 in 4.0 mi Calm Calm - N/A   Overcast
8:51 PM 27.1 °F - 25.2 °F 92% 30.58 in 6.0 mi Calm Calm - N/A   Mostly Cloudy
9:21 PM 26.6 °F - 24.8 °F 93% 30.56 in 9.0 mi Calm Calm - N/A   Mostly Cloudy
9:51 PM 27.1 °F - 25.2 °F 92% 30.56 in 5.0 mi Calm Calm - N/A   Mostly Cloudy
10:21 PM 26.6 °F - 26.6 °F 100% 30.54 in 3.0 mi Calm Calm - N/A   Scattered Clouds
10:51 PM 27.1 °F - 26.1 °F 96% 30.55 in 4.0 mi Calm Calm - N/A   Partly Cloudy
11:09 PM 26.6 °F - 26.6 °F 100% 30.52 in 2.0 mi Calm Calm - 0.00 in Rain Light Freezing Rain
11:26 PM 28.4 °F - 26.6 °F 93% 30.53 in 4.0 mi Calm Calm - 0.00 in Rain Light Freezing Rain
11:38 PM 28.4 °F - 26.6 °F 93% 30.52 in 5.0 mi Calm Calm - 0.00 in   Partly Cloudy
11:51 PM 28.0 °F - 26.1 °F 92% 30.54 in 5.0 mi Calm Calm - 0.00 in   Partly Cloudy